Portada
METAR-TAF:

METAR-TAF

Aeroports :

Ceduna, Austràlia

latitud: 32-07-50S, longitud: 133-42-35E, altitud: 23 m

Observació

L'informe es va fer fa 1 hora i 13 minuts, a les 19:00 UTC
Vent 6 kt del Sud-Est
Temperatura 14°C
Humitat 82%
Pressió 1021 hPa
Visibilitat 10 km o més

METAR: YCDU 071900Z AUTO 13006KT 9999 // NCD 14/11 Q1021

Hora: 05:43 (20:13 UTC)


TAF: manca

Observacions i pronòstics meteorològics de més de 4000 aeroports (METAR i TAF).

Les estacions disponibles són els punts grocs i vermells al mapa.

Posi el ratolí al punt desitjat per veure el nom de l'estació.

Feu clic per veure les observacions i els pronòstics meteorològics.

Per canviar el mapa: feu clic els botons verds amb una creu de color negre per apropar; al botó verd amb un guió per allunyar la imatge; o en les fletxes verdes per a mapes adjacents.


METAR-TAF: